Tampa Macdill AFB, FL

7:13 AM EST on November 17, 2019 (GMT -0500)
MacDill Air Force Base

Weather History for KMCF - October, 2019

Change the Weather History Date:

Monday, October 21, 2019

  Actual Average Record
Temperature  
Mean Temperature 80 °F -  
Max Temperature 86 °F 81 °F 88 °F (2013)
Min Temperature 73 °F 64 °F 54 °F (2011)
Cooling Degree Days 14    
Growing Degree Days 30 (Base 50)    
Moisture  
Dew Point 74 °F    
Average Humidity 89    
Maximum Humidity 94    
Minimum Humidity 78    
Precipitation  
Precipitation 0.00 in - - ()
Sea Level Pressure  
Sea Level Pressure 29.97 in    
Wind  
Wind Speed 7 mph (SSW)    
Max Wind Speed 22 mph    
Max Gust Speed 28 mph    
Visibility 8 miles    
Events Fog , Rain , Thunderstorm    
Averages and records for this station are not official NWS values.
T = Trace of Precipitation, MM = Missing Value Source: NWS Daily Summary

Daily Weather History Graph

Daily Weather History Graph

Search for Another Location

Airport or City:

Astronomy

Oct. 21, 2019 Rise Set
Actual Time 7:33 AM EDT 6:55 PM EDT
Civil Twilight 7:09 AM EDT 7:19 PM EDT
Nautical Twilight 6:42 AM EDT 7:46 PM EDT
Astronomical Twilight 6:15 AM EDT 8:13 PM EDT
Moon 12:23 AM EDT (10/21) 2:33 PM EDT (10/21)
Length of Visible Light 12h 09m
Length of Day
11h 21m
Waning Gibbous, 48% of the Moon is Illuminated
Oct 21
Waning Gibbous
Oct 27
New
Nov 4
First Quarter
Nov 12
Full
Nov 19
Last Quarter

Hourly Weather History & Observations

Time (EDT) Temp. Heat Index Dew Point Humidity Pressure Visibility Wind Dir Wind Speed Gust Speed Precip Events Conditions
12:56 AM 74.5 °F - 69.3 °F 84% 29.97 in 10.0 mi ENE 4.6 mph - N/A   Overcast
1:56 AM 73.6 °F - 69.1 °F 86% 29.96 in 10.0 mi East 5.8 mph - N/A   Overcast
2:56 AM 75.0 °F - 69.4 °F 83% 29.95 in 10.0 mi East 5.8 mph - N/A   Overcast
3:17 AM 75.2 °F - 69.8 °F 83% 29.95 in 10.0 mi Calm Calm - N/A   Light Drizzle
3:29 AM 75.2 °F - 69.8 °F 83% 29.95 in 10.0 mi Calm Calm - N/A   Overcast
3:56 AM 74.1 °F - 70.0 °F 87% 29.95 in 10.0 mi Calm Calm - 0.00 in   Overcast
4:56 AM 73.8 °F - 70.3 °F 89% 29.94 in 10.0 mi East 3.5 mph - N/A   Overcast
5:01 AM 73.4 °F - 69.8 °F 88% 29.94 in 10.0 mi East 4.6 mph - N/A   Light Drizzle
5:10 AM 73.4 °F - 71.6 °F 94% 29.94 in 10.0 mi East 5.8 mph - N/A   Overcast
5:56 AM 75.4 °F - 70.9 °F 86% 29.94 in 10.0 mi East 6.9 mph - 0.00 in   Overcast
6:56 AM 75.6 °F - 71.1 °F 86% 29.95 in 10.0 mi East 9.2 mph - N/A   Overcast
7:56 AM 76.1 °F - 72.0 °F 87% 29.95 in 10.0 mi ESE 5.8 mph - N/A   Overcast
7:57 AM 77.0 °F - 71.6 °F 83% 29.95 in 10.0 mi ESE 5.8 mph - N/A   Overcast
8:02 AM 77.0 °F - 71.6 °F 83% 29.95 in 10.0 mi East 5.8 mph - N/A   Overcast
8:22 AM 77.0 °F - 73.4 °F 89% 29.96 in 10.0 mi East 5.8 mph - N/A   Overcast
8:41 AM 77.0 °F - 73.4 °F 89% 29.96 in 9.0 mi East 5.8 mph - N/A Rain Light Rain
8:46 AM 77.0 °F - 73.4 °F 89% 29.96 in 5.0 mi East 4.6 mph - N/A Rain Heavy Rain
9:01 AM 77.0 °F - 73.4 °F 89% 29.97 in 10.0 mi East 6.9 mph - N/A   Light Drizzle
9:41 AM 78.8 °F - 77.0 °F 94% 29.98 in 5.0 mi SSW 6.9 mph - N/A Rain Heavy Rain
9:46 AM 78.8 °F - 77.0 °F 94% 29.98 in 3.0 mi SSW 8.1 mph - N/A Rain Light Rain
9:51 AM 78.8 °F - 77.0 °F 94% 29.98 in 2.8 mi SW 9.2 mph - N/A Rain Heavy Rain
9:56 AM 78.1 °F - 75.6 °F 92% 29.99 in 1.9 mi WSW 10.4 mph - 0.00 in Rain Heavy Rain
10:01 AM 77.0 °F - 75.2 °F 94% 29.98 in 1.1 mi WSW 6.9 mph - N/A Rain Heavy Rain
10:06 AM 77.0 °F - 75.2 °F 94% 29.98 in 1.0 mi WSW 8.1 mph - N/A Rain Heavy Rain
10:11 AM 77.0 °F - 75.2 °F 94% 29.98 in 1.8 mi West 4.6 mph - N/A Rain Heavy Rain
10:16 AM 77.0 °F - 75.2 °F 94% 29.98 in 6.0 mi WSW 3.5 mph - N/A Rain Light Rain
10:21 AM 77.0 °F - 75.2 °F 94% 29.99 in 10.0 mi WSW 4.6 mph - N/A   Overcast
10:38 AM 77.0 °F - 75.2 °F 94% 30.00 in 9.0 mi WSW 18.4 mph 24.2 mph N/A Rain Rain
10:43 AM 77.0 °F - 75.2 °F 94% 30.00 in 4.0 mi WSW 17.3 mph 24.2 mph N/A Rain Heavy Rain
10:48 AM 77.0 °F - 75.2 °F 94% 30.00 in 0.5 mi West 20.7 mph 24.2 mph N/A Fog , Rain Heavy Rain
10:54 AM 75.2 °F - 73.4 °F 94% 30.00 in 0.6 mi West 12.7 mph - N/A Rain Heavy Rain
10:56 AM 75.6 °F - 73.4 °F 93% 30.00 in 0.8 mi West 10.4 mph - 0.00 in Rain Heavy Rain
11:01 AM 75.2 °F - 73.4 °F 94% 29.99 in 1.6 mi West 8.1 mph - N/A Rain Heavy Rain
11:02 AM 75.2 °F - 73.4 °F 94% 29.99 in 1.9 mi WNW 6.9 mph - N/A   Scattered Clouds
11:03 AM 75.2 °F - 73.4 °F 94% 29.99 in 2.2 mi WNW 6.9 mph - N/A Rain Heavy Rain
11:08 AM 75.2 °F - 73.4 °F 94% 29.99 in 6.0 mi Calm Calm - N/A Rain Light Rain
11:21 AM 77.0 °F - 73.4 °F 89% 29.99 in 10.0 mi West 4.6 mph - N/A   Overcast
11:56 AM 78.6 °F - 75.0 °F 89% 29.99 in 10.0 mi SW 5.8 mph - 0.00 in Thunderstorm Overcast
12:56 PM 81.9 °F 90.0 °F 77.2 °F 86% 30.00 in 10.0 mi SSW 9.2 mph - N/A   Overcast
1:56 PM 86.2 °F 99.3 °F 78.4 °F 78% 29.98 in 10.0 mi South 15.0 mph - N/A   Scattered Clouds
2:56 PM 85.1 °F 97.1 °F 78.4 °F 80% 29.97 in 10.0 mi SSW 13.8 mph - N/A   Mostly Cloudy
3:39 PM 84.2 °F 96.1 °F 78.8 °F 84% 29.97 in 10.0 mi SSW 13.8 mph - N/A   Mostly Cloudy
3:46 PM 84.2 °F 94.1 °F 77.0 °F 79% 29.98 in 10.0 mi SSW 13.8 mph - N/A   Mostly Cloudy
3:56 PM 83.5 °F 92.9 °F 77.0 °F 81% 29.98 in 10.0 mi SSW 19.6 mph 26.5 mph N/A   Mostly Cloudy
3:57 PM 82.4 °F 90.9 °F 77.0 °F 84% 29.98 in 10.0 mi SSW 21.9 mph 27.6 mph N/A Thunderstorm Thunderstorm
4:06 PM 80.6 °F 86.2 °F 75.2 °F 84% 29.98 in 10.0 mi SSW 21.9 mph 27.6 mph N/A Thunderstorm Light Drizzle
4:43 PM 80.6 °F 85.4 °F 73.4 °F 79% 29.96 in 10.0 mi SSW 13.8 mph - N/A   Mostly Cloudy
4:56 PM 81.1 °F 87.2 °F 75.0 °F 82% 29.96 in 10.0 mi SSW 10.4 mph - 0.00 in   Mostly Cloudy
5:56 PM 82.6 °F 91.4 °F 77.2 °F 84% 29.96 in 10.0 mi South 9.2 mph - N/A   Partly Cloudy
6:56 PM 81.1 °F 88.4 °F 77.2 °F 88% 29.98 in 10.0 mi SSW 5.8 mph - N/A   Overcast
7:56 PM 80.2 °F 86.5 °F 77.4 °F 91% 29.98 in 10.0 mi SSW 4.6 mph - N/A   Clear
8:56 PM 80.6 °F 87.5 °F 77.7 °F 91% 29.99 in 10.0 mi South 6.9 mph - N/A   Clear
9:56 PM 79.7 °F - 76.8 °F 91% 30.00 in 10.0 mi Calm Calm - N/A   Scattered Clouds
10:56 PM 79.5 °F - 77.2 °F 93% 30.01 in 10.0 mi SSE 3.5 mph - N/A   Clear
11:56 PM 79.2 °F - 76.8 °F 92% 30.01 in 2.8 mi Calm Calm - N/A   Clear